Time,TemperatureF,DewpointF,PressureIn,WindDirection,WindDirectionDegrees,WindSpeedMPH,WindSpeedGustMPH,Humidity,HourlyPrecipIn,Conditions,Clouds,dailyrainin,SolarRadiationWatts/m^2,SoftwareType,DateUTC
2013-11-24 00:01:00,31.5,23.2,29.61,WSW,248,4.0,12.0,71,-99.99,,,-99.99,0.0,meteohub,2013-11-24 05:01:00,
2013-11-24 00:02:00,31.5,23.2,29.61,WSW,247,3.0,12.0,71,-99.99,,,-99.99,0.0,meteohub,2013-11-24 05:02:00,
2013-11-24 00:05:00,31.3,23.0,29.61,WSW,253,5.0,12.0,71,-99.99,,,-99.99,0.0,meteohub,2013-11-24 05:05:00,
2013-11-24 00:06:00,31.3,23.4,29.61,WSW,246,4.0,12.0,72,-99.99,,,-99.99,0.0,meteohub,2013-11-24 05:06:00,
2013-11-24 00:11:00,31.3,22.3,29.60,WSW,256,5.0,10.0,69,-99.99,,,-99.99,0.0,meteohub,2013-11-24 05:11:00,
2013-11-24 00:16:00,31.3,22.6,29.60,WSW,251,7.0,11.0,70,-99.99,,,-99.99,0.0,meteohub,2013-11-24 05:16:00,
2013-11-24 00:21:00,31.1,22.1,29.60,West,271,9.0,11.0,69,-99.99,,,-99.99,0.0,meteohub,2013-11-24 05:21:00,
2013-11-24 00:26:00,31.3,22.3,29.60,SW,230,7.0,12.0,69,-99.99,,,-99.99,0.0,meteohub,2013-11-24 05:26:00,
2013-11-24 00:31:00,31.3,23.0,29.60,SW,234,7.0,14.0,71,-99.99,,,-99.99,0.0,meteohub,2013-11-24 05:31:00,
2013-11-24 00:36:00,31.3,23.4,29.59,West,265,8.0,14.0,72,-99.99,,,-99.99,0.0,meteohub,2013-11-24 05:36:00,
2013-11-24 00:41:00,31.1,22.8,29.60,SW,229,6.0,14.0,71,-99.99,,,-99.99,0.0,meteohub,2013-11-24 05:41:00,
2013-11-24 00:46:00,30.7,22.1,29.60,WSW,250,5.0,15.0,70,-99.99,,,-99.99,0.0,meteohub,2013-11-24 05:46:00,
2013-11-24 00:52:00,30.6,21.6,29.60,West,260,8.0,15.0,69,-99.99,,,-99.99,0.0,meteohub,2013-11-24 05:52:00,
2013-11-24 00:57:00,30.6,21.6,29.59,West,267,10.0,15.0,69,-99.99,,,-99.99,0.0,meteohub,2013-11-24 05:57:00,
2013-11-24 01:02:00,30.7,22.5,29.59,WSW,257,11.0,14.0,71,-99.99,,,-99.99,0.0,meteohub,2013-11-24 06:02:00,
2013-11-24 01:07:00,30.4,21.0,29.60,West,266,10.0,14.0,68,-99.99,,,-99.99,0.0,meteohub,2013-11-24 06:07:00,
2013-11-24 01:12:00,30.2,20.8,29.59,WSW,258,11.0,14.0,68,-99.99,,,-99.99,0.0,meteohub,2013-11-24 06:12:00,
2013-11-24 01:17:00,30.0,20.7,29.60,WSW,246,7.0,13.0,68,-99.99,,,-99.99,0.0,meteohub,2013-11-24 06:17:00,
2013-11-24 01:22:00,29.8,21.2,29.60,WSW,257,8.0,15.0,70,-99.99,,,-99.99,0.0,meteohub,2013-11-24 06:22:00,
2013-11-24 01:27:00,29.7,21.4,29.60,West,265,9.0,15.0,71,-99.99,,,-99.99,0.0,meteohub,2013-11-24 06:27:00,
2013-11-24 01:32:00,29.5,20.3,29.60,West,265,8.0,15.0,68,-99.99,,,-99.99,0.0,meteohub,2013-11-24 06:32:00,
2013-11-24 01:37:00,29.1,20.5,29.60,WSW,245,7.0,17.0,70,-99.99,,,-99.99,0.0,meteohub,2013-11-24 06:37:00,
2013-11-24 01:42:00,29.1,21.2,29.60,WSW,254,8.0,17.0,72,-99.99,,,-99.99,0.0,meteohub,2013-11-24 06:42:00,
2013-11-24 01:47:00,29.1,21.2,29.60,West,261,8.0,15.0,72,-99.99,,,-99.99,0.0,meteohub,2013-11-24 06:47:00,
2013-11-24 01:52:00,28.8,20.5,29.60,West,261,12.0,12.0,71,-99.99,,,-99.99,0.0,meteohub,2013-11-24 06:52:00,
2013-11-24 01:57:00,28.0,18.9,29.60,WSW,244,12.0,16.0,68,-99.99,,,-99.99,0.0,meteohub,2013-11-24 06:57:00,
2013-11-24 02:02:00,27.7,19.2,29.61,WSW,254,6.0,18.0,70,-99.99,,,-99.99,0.0,meteohub,2013-11-24 07:02:00,
2013-11-24 02:07:00,27.3,18.9,29.61,West,264,9.0,18.0,70,-99.99,,,-99.99,0.0,meteohub,2013-11-24 07:07:00,
2013-11-24 02:12:00,27.3,19.6,29.61,West,262,7.0,15.0,72,-99.99,,,-99.99,0.0,meteohub,2013-11-24 07:12:00,
2013-11-24 02:17:00,27.1,18.3,29.61,West,262,9.0,15.0,69,-99.99,,,-99.99,0.0,meteohub,2013-11-24 07:17:00,
2013-11-24 02:22:00,26.8,17.6,29.62,West,266,7.0,15.0,68,-99.99,,,-99.99,0.0,meteohub,2013-11-24 07:22:00,
2013-11-24 02:27:00,26.6,17.1,29.61,WSW,257,10.0,14.0,67,-99.99,,,-99.99,0.0,meteohub,2013-11-24 07:27:00,
2013-11-24 02:32:00,26.4,16.5,29.61,West,259,10.0,18.0,66,-99.99,,,-99.99,0.0,meteohub,2013-11-24 07:32:00,
2013-11-24 02:37:00,26.2,16.7,29.61,West,264,8.0,18.0,67,-99.99,,,-99.99,0.0,meteohub,2013-11-24 07:37:00,
2013-11-24 02:42:00,26.2,16.7,29.61,West,265,8.0,18.0,67,-99.99,,,-99.99,0.0,meteohub,2013-11-24 07:42:00,
2013-11-24 02:47:00,26.1,15.6,29.61,WSW,248,9.0,16.0,64,-99.99,,,-99.99,0.0,meteohub,2013-11-24 07:47:00,
2013-11-24 02:52:00,26.1,16.0,29.61,West,265,8.0,18.0,65,-99.99,,,-99.99,0.0,meteohub,2013-11-24 07:52:00,
2013-11-24 02:57:00,25.9,16.2,29.61,West,265,6.0,18.0,66,-99.99,,,-99.99,0.0,meteohub,2013-11-24 07:57:00,
2013-11-24 03:02:00,25.9,15.8,29.61,WNW,284,8.0,18.0,65,-99.99,,,-99.99,0.0,meteohub,2013-11-24 08:02:00,
2013-11-24 03:07:00,25.7,16.3,29.62,WSW,248,13.0,16.0,67,-99.99,,,-99.99,0.0,meteohub,2013-11-24 08:07:00,
2013-11-24 03:12:00,25.5,16.5,29.61,WSW,254,6.0,15.0,68,-99.99,,,-99.99,0.0,meteohub,2013-11-24 08:12:00,
2013-11-24 03:17:00,25.7,16.5,29.61,WSW,256,8.0,15.0,68,-99.99,,,-99.99,0.0,meteohub,2013-11-24 08:17:00,
2013-11-24 03:22:00,25.5,16.5,29.61,West,260,6.0,14.0,68,-99.99,,,-99.99,0.0,meteohub,2013-11-24 08:22:00,
2013-11-24 03:27:00,25.3,16.5,29.62,West,265,10.0,12.0,69,-99.99,,,-99.99,0.0,meteohub,2013-11-24 08:27:00,
2013-11-24 03:32:00,25.3,16.9,29.61,SW,236,8.0,17.0,70,-99.99,,,-99.99,0.0,meteohub,2013-11-24 08:32:00,
2013-11-24 03:37:00,25.3,16.0,29.62,West,260,7.0,17.0,67,-99.99,,,-99.99,0.0,meteohub,2013-11-24 08:37:00,
2013-11-24 03:42:00,25.2,15.1,29.62,West,265,8.0,17.0,65,-99.99,,,-99.99,0.0,meteohub,2013-11-24 08:42:00,
2013-11-24 03:47:00,25.2,16.2,29.62,West,265,9.0,15.0,68,-99.99,,,-99.99,0.0,meteohub,2013-11-24 08:47:00,
2013-11-24 03:52:00,25.2,15.8,29.61,West,259,9.0,15.0,67,-99.99,,,-99.99,0.0,meteohub,2013-11-24 08:52:00,
2013-11-24 03:57:00,25.2,16.2,29.61,WSW,250,8.0,13.0,68,-99.99,,,-99.99,0.0,meteohub,2013-11-24 08:57:00,
2013-11-24 04:02:00,25.0,16.0,29.62,WSW,251,7.0,15.0,68,-99.99,,,-99.99,0.0,meteohub,2013-11-24 09:02:00,
2013-11-24 04:07:00,25.2,16.7,29.62,WSW,248,7.0,15.0,70,-99.99,,,-99.99,0.0,meteohub,2013-11-24 09:07:00,
2013-11-24 04:12:00,24.6,14.5,29.62,WSW,254,17.0,17.0,65,-99.99,,,-99.99,0.0,meteohub,2013-11-24 09:12:00,
2013-11-24 04:17:00,24.6,14.9,29.62,West,259,8.0,19.0,66,-99.99,,,-99.99,0.0,meteohub,2013-11-24 09:17:00,
2013-11-24 04:22:00,24.3,13.1,29.62,West,270,10.0,19.0,62,-99.99,,,-99.99,0.0,meteohub,2013-11-24 09:22:00,
2013-11-24 04:27:00,24.3,14.5,29.62,West,264,12.0,19.0,66,-99.99,,,-99.99,0.0,meteohub,2013-11-24 09:27:00,
2013-11-24 04:32:00,24.1,14.4,29.62,West,263,9.0,19.0,66,-99.99,,,-99.99,0.0,meteohub,2013-11-24 09:32:00,
2013-11-24 04:37:00,24.3,14.9,29.62,WSW,257,9.0,25.0,67,-99.99,,,-99.99,0.0,meteohub,2013-11-24 09:37:00,
2013-11-24 04:42:00,24.3,14.9,29.63,WSW,255,10.0,25.0,67,-99.99,,,-99.99,0.0,meteohub,2013-11-24 09:42:00,
2013-11-24 04:47:00,24.3,14.5,29.63,WSW,244,7.0,25.0,66,-99.99,,,-99.99,0.0,meteohub,2013-11-24 09:47:00,
2013-11-24 04:52:00,23.9,13.8,29.63,West,259,11.0,14.0,65,-99.99,,,-99.99,0.0,meteohub,2013-11-24 09:52:00,
2013-11-24 04:57:00,24.1,14.7,29.63,WSW,257,6.0,14.0,67,-99.99,,,-99.99,0.0,meteohub,2013-11-24 09:57:00,
2013-11-24 05:02:00,24.1,15.1,29.63,WSW,258,10.0,14.0,68,-99.99,,,-99.99,0.0,meteohub,2013-11-24 10:02:00,
2013-11-24 05:07:00,23.5,13.8,29.63,WSW,256,11.0,18.0,66,-99.99,,,-99.99,0.0,meteohub,2013-11-24 10:07:00,
2013-11-24 05:12:00,23.5,14.5,29.63,WSW,244,5.0,18.0,68,-99.99,,,-99.99,0.0,meteohub,2013-11-24 10:12:00,
2013-11-24 05:17:00,23.5,14.5,29.63,WSW,248,7.0,18.0,68,-99.99,,,-99.99,0.0,meteohub,2013-11-24 10:17:00,
2013-11-24 05:22:00,23.7,14.4,29.62,WSW,239,4.0,13.0,67,-99.99,,,-99.99,0.0,meteohub,2013-11-24 10:22:00,
2013-11-24 05:27:00,23.5,14.2,29.62,WSW,243,6.0,12.0,67,-99.99,,,-99.99,0.0,meteohub,2013-11-24 10:27:00,
2013-11-24 05:32:00,23.5,14.2,29.62,WSW,257,10.0,13.0,67,-99.99,,,-99.99,0.0,meteohub,2013-11-24 10:32:00,
2013-11-24 05:37:00,23.4,14.0,29.62,WSW,254,6.0,13.0,67,-99.99,,,-99.99,0.0,meteohub,2013-11-24 10:37:00,
2013-11-24 05:42:00,23.4,14.0,29.62,WSW,250,8.0,11.0,67,-99.99,,,-99.99,0.0,meteohub,2013-11-24 10:42:00,
2013-11-24 05:47:00,23.4,14.4,29.62,WSW,257,6.0,12.0,68,-99.99,,,-99.99,0.0,meteohub,2013-11-24 10:47:00,
2013-11-24 05:52:00,23.4,13.6,29.62,West,259,7.0,15.0,66,-99.99,,,-99.99,0.0,meteohub,2013-11-24 10:52:00,
2013-11-24 05:57:00,23.7,15.1,29.62,West,259,10.0,15.0,69,-99.99,,,-99.99,0.0,meteohub,2013-11-24 10:57:00,
2013-11-24 06:02:00,23.5,14.2,29.62,West,274,7.0,15.0,67,-99.99,,,-99.99,0.0,meteohub,2013-11-24 11:02:00,
2013-11-24 06:07:00,23.5,13.8,29.62,WNW,294,7.0,13.0,66,-99.99,,,-99.99,0.0,meteohub,2013-11-24 11:07:00,
2013-11-24 06:12:00,23.5,14.2,29.62,WSW,250,6.0,13.0,67,-99.99,,,-99.99,0.0,meteohub,2013-11-24 11:12:00,
2013-11-24 06:17:00,23.5,15.3,29.62,WSW,254,6.0,15.0,70,-99.99,,,-99.99,0.0,meteohub,2013-11-24 11:17:00,
2013-11-24 06:22:00,23.9,14.5,29.62,WSW,240,4.0,15.0,67,-99.99,,,-99.99,0.0,meteohub,2013-11-24 11:22:00,
2013-11-24 06:27:00,23.7,14.4,29.62,WSW,247,6.0,12.0,67,-99.99,,,-99.99,0.0,meteohub,2013-11-24 11:27:00,
2013-11-24 06:32:00,23.5,14.2,29.61,WSW,243,10.0,10.0,67,-99.99,,,-99.99,0.0,meteohub,2013-11-24 11:32:00,
2013-11-24 06:37:00,23.5,14.5,29.61,WSW,251,5.0,11.0,68,-99.99,,,-99.99,0.0,meteohub,2013-11-24 11:37:00,
2013-11-24 06:42:00,23.7,15.1,29.61,SW,235,6.0,11.0,69,-99.99,,,-99.99,0.0,meteohub,2013-11-24 11:42:00,
2013-11-24 06:47:00,23.5,14.9,29.62,WSW,249,8.0,12.0,69,-99.99,,,-99.99,5.0,meteohub,2013-11-24 11:47:00,
2013-11-24 06:52:00,23.5,14.5,29.62,WSW,252,7.0,12.0,68,-99.99,,,-99.99,7.0,meteohub,2013-11-24 11:52:00,
2013-11-24 06:57:00,23.7,14.4,29.62,West,281,5.0,10.0,67,-99.99,,,-99.99,9.0,meteohub,2013-11-24 11:57:00,
2013-11-24 07:02:00,23.5,14.2,29.61,WSW,258,6.0,12.0,67,-99.99,,,-99.99,11.0,meteohub,2013-11-24 12:02:00,
2013-11-24 07:07:00,23.5,14.2,29.61,SW,236,7.0,12.0,67,-99.99,,,-99.99,12.0,meteohub,2013-11-24 12:07:00,
2013-11-24 07:12:00,23.5,14.5,29.61,West,268,6.0,12.0,68,-99.99,,,-99.99,14.0,meteohub,2013-11-24 12:12:00,
2013-11-24 07:17:00,23.5,14.5,29.62,West,263,7.0,14.0,68,-99.99,,,-99.99,16.0,meteohub,2013-11-24 12:17:00,
2013-11-24 07:22:00,23.5,13.8,29.62,SW,233,6.0,14.0,66,-99.99,,,-99.99,18.0,meteohub,2013-11-24 12:22:00,
2013-11-24 07:27:00,23.5,14.9,29.62,WSW,246,6.0,14.0,69,-99.99,,,-99.99,18.0,meteohub,2013-11-24 12:27:00,
2013-11-24 07:32:00,23.5,13.8,29.62,West,275,5.0,13.0,66,-99.99,,,-99.99,21.0,meteohub,2013-11-24 12:32:00,
2013-11-24 07:38:00,23.7,14.4,29.62,West,261,6.0,10.0,67,-99.99,,,-99.99,21.0,meteohub,2013-11-24 12:38:00,
2013-11-24 07:43:00,23.7,14.0,29.62,WSW,254,7.0,10.0,66,-99.99,,,-99.99,23.0,meteohub,2013-11-24 12:43:00,
2013-11-24 07:48:00,24.1,14.4,29.62,WNW,285,6.0,12.0,66,-99.99,,,-99.99,25.0,meteohub,2013-11-24 12:48:00,
2013-11-24 07:53:00,23.7,14.0,29.62,SW,226,9.0,12.0,66,-99.99,,,-99.99,30.0,meteohub,2013-11-24 12:53:00,
2013-11-24 07:58:00,24.1,15.4,29.62,West,264,6.0,15.0,69,-99.99,,,-99.99,84.0,meteohub,2013-11-24 12:58:00,
2013-11-24 08:03:00,24.1,14.0,29.62,WSW,255,4.0,15.0,65,-99.99,,,-99.99,35.0,meteohub,2013-11-24 13:03:00,
2013-11-24 08:08:00,24.3,14.5,29.62,WSW,252,9.0,13.0,66,-99.99,,,-99.99,35.0,meteohub,2013-11-24 13:08:00,
2013-11-24 08:13:00,24.3,14.5,29.62,WSW,248,9.0,13.0,66,-99.99,,,-99.99,148.0,meteohub,2013-11-24 13:13:00,
2013-11-24 08:18:00,24.3,13.8,29.62,WSW,254,7.0,15.0,64,-99.99,,,-99.99,37.0,meteohub,2013-11-24 13:18:00,
2013-11-24 08:24:00,24.3,13.8,29.62,SW,234,10.0,15.0,64,-99.99,,,-99.99,207.0,meteohub,2013-11-24 13:24:00,
2013-11-24 08:29:00,24.4,14.7,29.62,WSW,253,7.0,15.0,66,-99.99,,,-99.99,56.0,meteohub,2013-11-24 13:29:00,
2013-11-24 08:34:00,24.6,14.5,29.62,WSW,250,7.0,12.0,65,-99.99,,,-99.99,243.0,meteohub,2013-11-24 13:34:00,
2013-11-24 08:39:00,24.4,13.6,29.62,West,272,6.0,12.0,63,-99.99,,,-99.99,213.0,meteohub,2013-11-24 13:39:00,
2013-11-24 08:44:00,24.4,13.3,29.62,West,266,8.0,14.0,62,-99.99,,,-99.99,163.0,meteohub,2013-11-24 13:44:00,
2013-11-24 08:49:00,24.4,12.9,29.62,WSW,246,9.0,14.0,61,-99.99,,,-99.99,51.0,meteohub,2013-11-24 13:49:00,
2013-11-24 08:54:00,24.6,13.5,29.62,SW,230,9.0,15.0,62,-99.99,,,-99.99,60.0,meteohub,2013-11-24 13:54:00,
2013-11-24 08:59:00,24.6,13.5,29.62,West,261,8.0,15.0,62,-99.99,,,-99.99,91.0,meteohub,2013-11-24 13:59:00,
2013-11-24 09:04:00,24.8,13.3,29.62,WSW,238,7.0,15.0,61,-99.99,,,-99.99,97.0,meteohub,2013-11-24 14:04:00,
2013-11-24 09:09:00,25.0,13.8,29.62,SW,234,10.0,15.0,62,-99.99,,,-99.99,105.0,meteohub,2013-11-24 14:09:00,
2013-11-24 09:14:00,25.2,14.4,29.62,WSW,238,8.0,15.0,63,-99.99,,,-99.99,116.0,meteohub,2013-11-24 14:14:00,
2013-11-24 09:20:00,25.0,13.1,29.62,WSW,251,8.0,15.0,60,-99.99,,,-99.99,97.0,meteohub,2013-11-24 14:20:00,
2013-11-24 09:25:00,24.6,11.5,29.61,WSW,242,6.0,15.0,57,-99.99,,,-99.99,91.0,meteohub,2013-11-24 14:25:00,
2013-11-24 09:30:00,25.2,14.0,29.62,West,264,8.0,16.0,62,-99.99,,,-99.99,257.0,meteohub,2013-11-24 14:30:00,
2013-11-24 09:35:00,25.3,13.5,29.62,WSW,237,9.0,16.0,60,-99.99,,,-99.99,139.0,meteohub,2013-11-24 14:35:00,
2013-11-24 09:40:00,25.3,13.8,29.62,WSW,246,11.0,16.0,61,-99.99,,,-99.99,151.0,meteohub,2013-11-24 14:40:00,
2013-11-24 09:45:00,25.3,13.5,29.62,WSW,240,5.0,16.0,60,-99.99,,,-99.99,130.0,meteohub,2013-11-24 14:45:00,
2013-11-24 09:50:00,25.7,14.2,29.62,West,259,10.0,14.0,61,-99.99,,,-99.99,167.0,meteohub,2013-11-24 14:50:00,
2013-11-24 09:55:00,25.5,13.1,29.61,WSW,254,6.0,15.0,59,-99.99,,,-99.99,148.0,meteohub,2013-11-24 14:55:00,
2013-11-24 10:00:00,25.5,14.4,29.62,West,259,13.0,16.0,62,-99.99,,,-99.99,193.0,meteohub,2013-11-24 15:00:00,
2013-11-24 10:05:00,25.3,13.1,29.62,SW,233,8.0,16.0,59,-99.99,,,-99.99,163.0,meteohub,2013-11-24 15:05:00,
2013-11-24 10:11:00,25.3,13.1,29.61,WSW,252,9.0,19.0,59,-99.99,,,-99.99,153.0,meteohub,2013-11-24 15:11:00,
2013-11-24 10:16:00,25.2,12.0,29.61,West,263,12.0,19.0,57,-99.99,,,-99.99,148.0,meteohub,2013-11-24 15:16:00,
2013-11-24 10:21:00,25.2,11.7,29.61,SW,236,16.0,20.0,56,-99.99,,,-99.99,158.0,meteohub,2013-11-24 15:21:00,
2013-11-24 10:26:00,25.3,12.2,29.61,West,261,11.0,20.0,57,-99.99,,,-99.99,162.0,meteohub,2013-11-24 15:26:00,
2013-11-24 10:31:00,25.3,13.5,29.62,West,260,10.0,19.0,60,-99.99,,,-99.99,167.0,meteohub,2013-11-24 15:31:00,
2013-11-24 10:36:00,25.5,13.6,29.62,West,261,9.0,19.0,60,-99.99,,,-99.99,179.0,meteohub,2013-11-24 15:36:00,
2013-11-24 10:41:00,25.5,12.7,29.61,WSW,252,12.0,19.0,58,-99.99,,,-99.99,146.0,meteohub,2013-11-24 15:41:00,
2013-11-24 10:46:00,25.3,13.1,29.61,WSW,257,14.0,19.0,59,-99.99,,,-99.99,91.0,meteohub,2013-11-24 15:46:00,
2013-11-24 10:51:00,25.2,12.4,29.61,WSW,255,10.0,21.0,58,-99.99,,,-99.99,121.0,meteohub,2013-11-24 15:51:00,
2013-11-24 10:57:00,25.3,13.1,29.61,WSW,255,10.0,21.0,59,-99.99,,,-99.99,246.0,meteohub,2013-11-24 15:57:00,
2013-11-24 11:02:00,25.3,12.2,29.62,West,260,10.0,23.0,57,-99.99,,,-99.99,204.0,meteohub,2013-11-24 16:02:00,
2013-11-24 11:07:00,25.2,12.0,29.62,West,271,10.0,23.0,57,-99.99,,,-99.99,195.0,meteohub,2013-11-24 16:07:00,
2013-11-24 11:12:00,25.2,12.4,29.62,WSW,248,8.0,23.0,58,-99.99,,,-99.99,165.0,meteohub,2013-11-24 16:12:00,
2013-11-24 11:17:00,25.2,13.3,29.62,West,275,6.0,18.0,60,-99.99,,,-99.99,167.0,meteohub,2013-11-24 16:17:00,
2013-11-24 11:22:00,25.2,12.4,29.61,WSW,253,18.0,19.0,58,-99.99,,,-99.99,167.0,meteohub,2013-11-24 16:22:00,
2013-11-24 11:27:00,25.3,13.8,29.61,West,265,12.0,19.0,61,-99.99,,,-99.99,123.0,meteohub,2013-11-24 16:27:00,
2013-11-24 11:32:00,25.5,13.6,29.61,WSW,257,10.0,18.0,60,-99.99,,,-99.99,156.0,meteohub,2013-11-24 16:32:00,
2013-11-24 11:37:00,25.5,13.6,29.61,West,263,13.0,18.0,60,-99.99,,,-99.99,146.0,meteohub,2013-11-24 16:37:00,
2013-11-24 11:42:00,25.7,12.9,29.61,WSW,250,8.0,17.0,58,-99.99,,,-99.99,207.0,meteohub,2013-11-24 16:42:00,
2013-11-24 11:47:00,25.9,13.8,29.61,West,259,9.0,23.0,60,-99.99,,,-99.99,172.0,meteohub,2013-11-24 16:47:00,
2013-11-24 11:52:00,26.1,14.0,29.60,WSW,242,14.0,23.0,60,-99.99,,,-99.99,183.0,meteohub,2013-11-24 16:52:00,
2013-11-24 11:57:00,25.9,15.1,29.61,WSW,257,10.0,23.0,63,-99.99,,,-99.99,239.0,meteohub,2013-11-24 16:57:00,
2013-11-24 12:02:00,26.1,14.0,29.61,West,261,12.0,22.0,60,-99.99,,,-99.99,178.0,meteohub,2013-11-24 17:02:00,
2013-11-24 12:07:00,26.1,14.9,29.61,WSW,258,11.0,22.0,62,-99.99,,,-99.99,267.0,meteohub,2013-11-24 17:07:00,
2013-11-24 12:13:00,26.1,14.9,29.61,WSW,256,20.0,20.0,62,-99.99,,,-99.99,248.0,meteohub,2013-11-24 17:13:00,
2013-11-24 12:18:00,26.1,14.5,29.61,West,261,10.0,22.0,61,-99.99,,,-99.99,239.0,meteohub,2013-11-24 17:18:00,
2013-11-24 12:23:00,26.1,14.0,29.61,SW,223,13.0,22.0,60,-99.99,,,-99.99,234.0,meteohub,2013-11-24 17:23:00,
2013-11-24 12:28:00,25.9,13.8,29.61,WSW,244,8.0,22.0,60,-99.99,,,-99.99,230.0,meteohub,2013-11-24 17:28:00,
2013-11-24 12:34:00,25.9,12.4,29.61,WNW,289,11.0,22.0,56,-99.99,,,-99.99,183.0,meteohub,2013-11-24 17:34:00,
2013-11-24 12:39:00,25.5,12.7,29.61,West,263,12.0,22.0,58,-99.99,,,-99.99,162.0,meteohub,2013-11-24 17:39:00,
2013-11-24 12:44:00,25.3,12.2,29.61,West,269,11.0,22.0,57,-99.99,,,-99.99,241.0,meteohub,2013-11-24 17:44:00,
2013-11-24 12:49:00,25.3,13.1,29.61,WSW,258,7.0,21.0,59,-99.99,,,-99.99,141.0,meteohub,2013-11-24 17:49:00,
2013-11-24 12:54:00,25.3,13.5,29.62,WSW,250,11.0,21.0,60,-99.99,,,-99.99,172.0,meteohub,2013-11-24 17:54:00,
2013-11-24 12:59:00,25.3,14.2,29.62,WSW,248,8.0,21.0,62,-99.99,,,-99.99,156.0,meteohub,2013-11-24 17:59:00,
2013-11-24 13:05:00,25.3,12.6,29.62,West,269,9.0,18.0,58,-99.99,,,-99.99,162.0,meteohub,2013-11-24 18:05:00,
2013-11-24 13:10:00,25.3,13.8,29.62,SW,236,11.0,18.0,61,-99.99,,,-99.99,139.0,meteohub,2013-11-24 18:10:00,
2013-11-24 13:15:00,25.2,13.6,29.62,WSW,254,10.0,19.0,61,-99.99,,,-99.99,97.0,meteohub,2013-11-24 18:15:00,
2013-11-24 13:20:00,25.2,13.6,29.62,WSW,241,7.0,19.0,61,-99.99,,,-99.99,156.0,meteohub,2013-11-24 18:20:00,
2013-11-24 13:25:00,25.2,12.9,29.62,West,268,13.0,19.0,59,-99.99,,,-99.99,176.0,meteohub,2013-11-24 18:25:00,
2013-11-24 13:30:00,25.3,13.8,29.62,WSW,255,8.0,19.0,61,-99.99,,,-99.99,135.0,meteohub,2013-11-24 18:30:00,
2013-11-24 13:35:00,25.3,13.1,29.62,WSW,247,8.0,18.0,59,-99.99,,,-99.99,163.0,meteohub,2013-11-24 18:35:00,
2013-11-24 13:40:00,25.3,13.1,29.63,West,261,8.0,18.0,59,-99.99,,,-99.99,139.0,meteohub,2013-11-24 18:40:00,
2013-11-24 13:46:00,25.7,13.8,29.63,West,261,9.0,19.0,60,-99.99,,,-99.99,137.0,meteohub,2013-11-24 18:46:00,
2013-11-24 13:51:00,25.5,12.4,29.63,West,259,10.0,19.0,57,-99.99,,,-99.99,146.0,meteohub,2013-11-24 18:51:00,
2013-11-24 13:56:00,25.5,13.1,29.64,WSW,252,10.0,19.0,59,-99.99,,,-99.99,153.0,meteohub,2013-11-24 18:56:00,
2013-11-24 14:01:00,25.3,13.5,29.64,WSW,258,11.0,20.0,60,-99.99,,,-99.99,135.0,meteohub,2013-11-24 19:01:00,
2013-11-24 14:06:00,25.2,12.0,29.64,West,259,10.0,23.0,57,-99.99,,,-99.99,183.0,meteohub,2013-11-24 19:06:00,
2013-11-24 14:11:00,25.5,14.0,29.64,West,263,15.0,23.0,61,-99.99,,,-99.99,120.0,meteohub,2013-11-24 19:11:00,
2013-11-24 14:16:00,25.3,11.8,29.65,WSW,257,9.0,19.0,56,-99.99,,,-99.99,102.0,meteohub,2013-11-24 19:16:00,
2013-11-24 14:21:00,25.9,13.8,29.65,WSW,252,8.0,19.0,60,-99.99,,,-99.99,113.0,meteohub,2013-11-24 19:21:00,
2013-11-24 14:27:00,25.3,12.2,29.65,West,264,13.0,19.0,57,-99.99,,,-99.99,142.0,meteohub,2013-11-24 19:27:00,
2013-11-24 14:32:00,25.2,13.3,29.66,WSW,251,12.0,20.0,60,-99.99,,,-99.99,104.0,meteohub,2013-11-24 19:32:00,
2013-11-24 14:37:00,24.8,12.6,29.66,West,262,12.0,24.0,59,-99.99,,,-99.99,95.0,meteohub,2013-11-24 19:37:00,
2013-11-24 14:42:00,25.0,13.5,29.67,West,259,13.0,24.0,61,-99.99,,,-99.99,76.0,meteohub,2013-11-24 19:42:00,
2013-11-24 14:47:00,25.2,14.0,29.67,West,275,9.0,24.0,62,-99.99,,,-99.99,70.0,meteohub,2013-11-24 19:47:00,
2013-11-24 14:52:00,25.0,13.1,29.68,WSW,239,11.0,24.0,60,-99.99,,,-99.99,65.0,meteohub,2013-11-24 19:52:00,
2013-11-24 14:57:00,25.0,13.8,29.67,WSW,249,10.0,24.0,62,-99.99,,,-99.99,49.0,meteohub,2013-11-24 19:57:00,
2013-11-24 15:02:00,24.8,13.3,29.68,West,277,12.0,21.0,61,-99.99,,,-99.99,53.0,meteohub,2013-11-24 20:02:00,
2013-11-24 15:07:00,24.6,13.8,29.68,West,264,11.0,20.0,63,-99.99,,,-99.99,44.0,meteohub,2013-11-24 20:07:00,
2013-11-24 15:12:00,24.6,14.2,29.68,WSW,254,10.0,24.0,64,-99.99,,,-99.99,42.0,meteohub,2013-11-24 20:12:00,
2013-11-24 15:18:00,24.4,14.0,29.69,West,263,13.0,24.0,64,-99.99,,,-99.99,40.0,meteohub,2013-11-24 20:18:00,
2013-11-24 15:23:00,24.3,14.2,29.69,WSW,248,15.0,22.0,65,-99.99,,,-99.99,30.0,meteohub,2013-11-24 20:23:00,
2013-11-24 15:28:00,24.1,14.0,29.69,WSW,255,13.0,24.0,65,-99.99,,,-99.99,25.0,meteohub,2013-11-24 20:28:00,
2013-11-24 15:33:00,24.3,14.5,29.69,WSW,249,10.0,24.0,66,-99.99,,,-99.99,21.0,meteohub,2013-11-24 20:33:00,
2013-11-24 15:38:00,24.4,14.0,29.69,WSW,258,12.0,24.0,64,-99.99,,,-99.99,14.0,meteohub,2013-11-24 20:38:00,
2013-11-24 15:43:00,24.3,13.5,29.70,WSW,246,12.0,24.0,63,-99.99,,,-99.99,11.0,meteohub,2013-11-24 20:43:00,
2013-11-24 15:48:00,24.6,15.6,29.70,WSW,244,11.0,19.0,68,-99.99,,,-99.99,7.0,meteohub,2013-11-24 20:48:00,
2013-11-24 15:53:00,24.4,12.6,29.70,West,260,12.0,19.0,60,-99.99,,,-99.99,5.0,meteohub,2013-11-24 20:53:00,
2013-11-24 15:58:00,24.6,13.5,29.70,West,274,15.0,25.0,62,-99.99,,,-99.99,0.0,meteohub,2013-11-24 20:58:00,
2013-11-24 16:04:00,24.4,12.9,29.70,West,259,16.0,25.0,61,-99.99,,,-99.99,0.0,meteohub,2013-11-24 21:04:00,
2013-11-24 16:09:00,24.4,13.6,29.70,WSW,257,9.0,25.0,63,-99.99,,,-99.99,0.0,meteohub,2013-11-24 21:09:00,
2013-11-24 16:14:00,24.8,13.6,29.71,WSW,257,19.0,25.0,62,-99.99,,,-99.99,0.0,meteohub,2013-11-24 21:14:00,
2013-11-24 16:19:00,24.3,12.0,29.71,WSW,253,10.0,25.0,59,-99.99,,,-99.99,0.0,meteohub,2013-11-24 21:19:00,
2013-11-24 16:24:00,24.4,13.3,29.71,WSW,253,7.0,22.0,62,-99.99,,,-99.99,0.0,meteohub,2013-11-24 21:24:00,
2013-11-24 16:29:00,24.4,12.6,29.71,West,260,7.0,22.0,60,-99.99,,,-99.99,0.0,meteohub,2013-11-24 21:29:00,
2013-11-24 16:34:00,24.4,13.6,29.72,West,259,11.0,22.0,63,-99.99,,,-99.99,0.0,meteohub,2013-11-24 21:34:00,
2013-11-24 16:39:00,24.4,11.8,29.72,WSW,256,9.0,18.0,58,-99.99,,,-99.99,0.0,meteohub,2013-11-24 21:39:00,
2013-11-24 16:45:00,24.4,12.6,29.72,WSW,250,10.0,23.0,60,-99.99,,,-99.99,0.0,meteohub,2013-11-24 21:45:00,
2013-11-24 16:50:00,24.4,13.3,29.72,WSW,252,12.0,23.0,62,-99.99,,,-99.99,0.0,meteohub,2013-11-24 21:50:00,
2013-11-24 16:55:00,24.4,14.0,29.73,West,269,11.0,23.0,64,-99.99,,,-99.99,0.0,meteohub,2013-11-24 21:55:00,
2013-11-24 17:00:00,24.3,12.7,29.73,West,261,14.0,20.0,61,-99.99,,,-99.99,0.0,meteohub,2013-11-24 22:00:00,
2013-11-24 17:05:00,24.1,12.2,29.73,West,273,15.0,21.0,60,-99.99,,,-99.99,0.0,meteohub,2013-11-24 22:05:00,
2013-11-24 17:10:00,24.1,12.9,29.73,West,265,9.0,21.0,62,-99.99,,,-99.99,0.0,meteohub,2013-11-24 22:10:00,
2013-11-24 17:15:00,24.3,12.7,29.73,West,264,12.0,21.0,61,-99.99,,,-99.99,0.0,meteohub,2013-11-24 22:15:00,
2013-11-24 17:20:00,24.3,12.7,29.73,West,274,6.0,21.0,61,-99.99,,,-99.99,0.0,meteohub,2013-11-24 22:20:00,
2013-11-24 17:25:00,24.3,13.1,29.74,West,260,11.0,22.0,62,-99.99,,,-99.99,0.0,meteohub,2013-11-24 22:25:00,
2013-11-24 17:30:00,24.1,13.3,29.74,West,267,16.0,23.0,63,-99.99,,,-99.99,0.0,meteohub,2013-11-24 22:30:00,
2013-11-24 17:36:00,24.1,12.6,29.74,WSW,252,12.0,23.0,61,-99.99,,,-99.99,0.0,meteohub,2013-11-24 22:36:00,
2013-11-24 17:41:00,24.1,12.9,29.74,West,265,13.0,23.0,62,-99.99,,,-99.99,0.0,meteohub,2013-11-24 22:41:00,
2013-11-24 17:46:00,23.9,12.7,29.74,West,263,13.0,22.0,62,-99.99,,,-99.99,0.0,meteohub,2013-11-24 22:46:00,
2013-11-24 17:51:00,24.1,13.6,29.74,SW,231,14.0,20.0,64,-99.99,,,-99.99,0.0,meteohub,2013-11-24 22:51:00,
2013-11-24 17:56:00,24.1,12.9,29.75,West,265,14.0,19.0,62,-99.99,,,-99.99,0.0,meteohub,2013-11-24 22:56:00,
2013-11-24 18:01:00,24.1,13.3,29.75,West,262,12.0,20.0,63,-99.99,,,-99.99,0.0,meteohub,2013-11-24 23:01:00,
2013-11-24 18:06:00,24.1,13.3,29.75,WSW,245,16.0,20.0,63,-99.99,,,-99.99,0.0,meteohub,2013-11-24 23:06:00,
2013-11-24 18:11:00,23.7,13.3,29.75,WSW,251,9.0,20.0,64,-99.99,,,-99.99,0.0,meteohub,2013-11-24 23:11:00,
2013-11-24 18:16:00,24.1,14.0,29.76,West,266,11.0,20.0,65,-99.99,,,-99.99,0.0,meteohub,2013-11-24 23:16:00,
2013-11-24 18:21:00,23.9,12.4,29.76,WSW,256,11.0,22.0,61,-99.99,,,-99.99,0.0,meteohub,2013-11-24 23:21:00,
2013-11-24 18:27:00,23.7,12.2,29.76,WSW,250,10.0,22.0,61,-99.99,,,-99.99,0.0,meteohub,2013-11-24 23:27:00,
2013-11-24 18:32:00,23.9,12.7,29.76,WSW,254,14.0,22.0,62,-99.99,,,-99.99,0.0,meteohub,2013-11-24 23:32:00,
2013-11-24 18:37:00,23.9,12.7,29.76,West,262,16.0,23.0,62,-99.99,,,-99.99,0.0,meteohub,2013-11-24 23:37:00,
2013-11-24 18:42:00,24.1,13.6,29.77,West,259,8.0,25.0,64,-99.99,,,-99.99,0.0,meteohub,2013-11-24 23:42:00,
2013-11-24 18:47:00,23.7,11.5,29.77,WSW,252,11.0,25.0,59,-99.99,,,-99.99,0.0,meteohub,2013-11-24 23:47:00,
2013-11-24 18:52:00,23.7,12.6,29.77,WSW,256,8.0,25.0,62,-99.99,,,-99.99,0.0,meteohub,2013-11-24 23:52:00,
2013-11-24 18:57:00,23.7,12.2,29.77,WSW,245,9.0,16.0,61,-99.99,,,-99.99,0.0,meteohub,2013-11-24 23:57:00,
2013-11-24 19:02:00,23.5,12.7,29.77,West,260,12.0,16.0,63,-99.99,,,-99.99,0.0,meteohub,2013-11-25 00:02:00,
2013-11-24 19:07:00,23.5,13.1,29.78,SW,234,9.0,21.0,64,-99.99,,,-99.99,0.0,meteohub,2013-11-25 00:07:00,
2013-11-24 19:12:00,23.5,13.5,29.78,WSW,240,6.0,21.0,65,-99.99,,,-99.99,0.0,meteohub,2013-11-25 00:12:00,
2013-11-24 19:17:00,23.4,11.8,29.79,West,271,11.0,21.0,61,-99.99,,,-99.99,0.0,meteohub,2013-11-25 00:17:00,
2013-11-24 19:22:00,23.2,10.9,29.78,WSW,250,7.0,20.0,59,-99.99,,,-99.99,0.0,meteohub,2013-11-25 00:22:00,
2013-11-24 19:27:00,23.5,12.4,29.79,West,265,8.0,20.0,62,-99.99,,,-99.99,0.0,meteohub,2013-11-25 00:27:00,
2013-11-24 19:32:00,23.4,11.8,29.79,West,273,13.0,20.0,61,-99.99,,,-99.99,0.0,meteohub,2013-11-25 00:32:00,
2013-11-24 19:37:00,23.4,11.8,29.79,SW,229,10.0,18.0,61,-99.99,,,-99.99,0.0,meteohub,2013-11-25 00:37:00,
2013-11-24 19:42:00,23.2,11.3,29.79,West,271,10.0,17.0,60,-99.99,,,-99.99,0.0,meteohub,2013-11-25 00:42:00,
2013-11-24 19:47:00,23.0,11.1,29.79,WSW,239,11.0,20.0,60,-99.99,,,-99.99,0.0,meteohub,2013-11-25 00:47:00,
2013-11-24 19:52:00,23.2,11.7,29.79,West,265,9.0,20.0,61,-99.99,,,-99.99,0.0,meteohub,2013-11-25 00:52:00,
2013-11-24 19:57:00,23.2,11.7,29.80,West,278,8.0,20.0,61,-99.99,,,-99.99,0.0,meteohub,2013-11-25 00:57:00,
2013-11-24 20:02:00,22.8,10.6,29.80,West,259,13.0,20.0,59,-99.99,,,-99.99,0.0,meteohub,2013-11-25 01:02:00,
2013-11-24 20:07:00,22.8,11.8,29.80,WSW,254,8.0,19.0,62,-99.99,,,-99.99,0.0,meteohub,2013-11-25 01:07:00,
2013-11-24 20:12:00,22.8,10.9,29.80,WSW,248,9.0,22.0,60,-99.99,,,-99.99,0.0,meteohub,2013-11-25 01:12:00,
2013-11-24 20:17:00,22.8,11.8,29.81,WSW,257,12.0,22.0,62,-99.99,,,-99.99,0.0,meteohub,2013-11-25 01:17:00,
2013-11-24 20:22:00,23.0,12.6,29.81,WSW,257,9.0,19.0,64,-99.99,,,-99.99,0.0,meteohub,2013-11-25 01:22:00,
2013-11-24 20:27:00,22.8,11.3,29.81,WSW,250,12.0,19.0,61,-99.99,,,-99.99,0.0,meteohub,2013-11-25 01:27:00,
2013-11-24 20:32:00,23.0,12.9,29.81,WSW,252,8.0,22.0,65,-99.99,,,-99.99,0.0,meteohub,2013-11-25 01:32:00,
2013-11-24 20:37:00,23.2,12.7,29.81,WSW,248,9.0,22.0,64,-99.99,,,-99.99,0.0,meteohub,2013-11-25 01:37:00,
2013-11-24 20:42:00,22.8,11.3,29.81,WSW,243,8.0,22.0,61,-99.99,,,-99.99,0.0,meteohub,2013-11-25 01:42:00,
2013-11-24 20:47:00,22.8,12.6,29.81,WSW,254,8.0,18.0,64,-99.99,,,-99.99,0.0,meteohub,2013-11-25 01:47:00,
2013-11-24 20:52:00,23.0,12.6,29.81,WSW,254,8.0,18.0,64,-99.99,,,-99.99,0.0,meteohub,2013-11-25 01:52:00,
2013-11-24 20:57:00,22.6,11.3,29.81,WSW,244,9.0,20.0,61,-99.99,,,-99.99,0.0,meteohub,2013-11-25 01:57:00,
2013-11-24 21:02:00,22.8,12.6,29.81,SW,228,8.0,20.0,64,-99.99,,,-99.99,0.0,meteohub,2013-11-25 02:02:00,
2013-11-24 21:07:00,22.6,11.3,29.81,WNW,284,11.0,19.0,61,-99.99,,,-99.99,0.0,meteohub,2013-11-25 02:07:00,
2013-11-24 21:12:00,22.6,11.3,29.82,West,265,12.0,21.0,61,-99.99,,,-99.99,0.0,meteohub,2013-11-25 02:12:00,
2013-11-24 21:17:00,22.8,11.8,29.82,WSW,244,10.0,21.0,62,-99.99,,,-99.99,0.0,meteohub,2013-11-25 02:17:00,
2013-11-24 21:22:00,22.6,12.0,29.82,WSW,254,9.0,21.0,63,-99.99,,,-99.99,0.0,meteohub,2013-11-25 02:22:00,
2013-11-24 21:27:00,22.8,11.3,29.83,West,265,11.0,20.0,61,-99.99,,,-99.99,0.0,meteohub,2013-11-25 02:27:00,
2013-11-24 21:32:00,23.2,13.5,29.83,West,259,13.0,20.0,66,-99.99,,,-99.99,0.0,meteohub,2013-11-25 02:32:00,
2013-11-24 21:37:00,22.8,12.2,29.83,WSW,252,10.0,20.0,63,-99.99,,,-99.99,0.0,meteohub,2013-11-25 02:37:00,
2013-11-24 21:42:00,22.8,10.9,29.83,West,275,11.0,20.0,60,-99.99,,,-99.99,0.0,meteohub,2013-11-25 02:42:00,
2013-11-24 21:47:00,22.8,11.3,29.84,West,260,15.0,20.0,61,-99.99,,,-99.99,0.0,meteohub,2013-11-25 02:47:00,
2013-11-24 21:52:00,22.6,11.3,29.84,West,259,9.0,20.0,61,-99.99,,,-99.99,0.0,meteohub,2013-11-25 02:52:00,
2013-11-24 21:57:00,22.6,12.0,29.84,West,262,13.0,20.0,63,-99.99,,,-99.99,0.0,meteohub,2013-11-25 02:57:00,
2013-11-24 22:02:00,22.6,11.7,29.84,WSW,256,11.0,19.0,62,-99.99,,,-99.99,0.0,meteohub,2013-11-25 03:02:00,
2013-11-24 22:07:00,22.6,12.4,29.84,West,259,10.0,19.0,64,-99.99,,,-99.99,0.0,meteohub,2013-11-25 03:07:00,
2013-11-24 22:12:00,22.6,11.7,29.84,WSW,252,7.0,19.0,62,-99.99,,,-99.99,0.0,meteohub,2013-11-25 03:12:00,
2013-11-24 22:17:00,22.5,11.1,29.84,WSW,252,10.0,18.0,61,-99.99,,,-99.99,0.0,meteohub,2013-11-25 03:17:00,
2013-11-24 22:22:00,22.6,12.0,29.85,WSW,258,10.0,15.0,63,-99.99,,,-99.99,0.0,meteohub,2013-11-25 03:22:00,
2013-11-24 22:27:00,22.6,12.4,29.85,WSW,254,7.0,16.0,64,-99.99,,,-99.99,0.0,meteohub,2013-11-25 03:27:00,
2013-11-24 22:32:00,22.5,11.8,29.85,West,265,9.0,20.0,63,-99.99,,,-99.99,0.0,meteohub,2013-11-25 03:32:00,
2013-11-24 22:37:00,22.5,11.5,29.85,West,261,7.0,20.0,62,-99.99,,,-99.99,0.0,meteohub,2013-11-25 03:37:00,
2013-11-24 22:42:00,22.5,11.8,29.85,WSW,248,9.0,20.0,63,-99.99,,,-99.99,0.0,meteohub,2013-11-25 03:42:00,
2013-11-24 22:47:00,22.5,12.2,29.86,WSW,256,13.0,17.0,64,-99.99,,,-99.99,0.0,meteohub,2013-11-25 03:47:00,
2013-11-24 22:52:00,22.6,12.4,29.86,WSW,258,9.0,17.0,64,-99.99,,,-99.99,0.0,meteohub,2013-11-25 03:52:00,
2013-11-24 22:57:00,22.5,11.5,29.86,West,263,12.0,17.0,62,-99.99,,,-99.99,0.0,meteohub,2013-11-25 03:57:00,
2013-11-24 23:02:00,22.5,11.5,29.87,West,271,8.0,18.0,62,-99.99,,,-99.99,0.0,meteohub,2013-11-25 04:02:00,
2013-11-24 23:07:00,22.5,11.5,29.86,West,259,8.0,21.0,62,-99.99,,,-99.99,0.0,meteohub,2013-11-25 04:07:00,
2013-11-24 23:12:00,22.5,12.2,29.87,West,268,9.0,21.0,64,-99.99,,,-99.99,0.0,meteohub,2013-11-25 04:12:00,
2013-11-24 23:17:00,22.6,12.7,29.87,West,272,11.0,21.0,65,-99.99,,,-99.99,0.0,meteohub,2013-11-25 04:17:00,
2013-11-24 23:22:00,22.6,12.7,29.88,West,268,7.0,16.0,65,-99.99,,,-99.99,0.0,meteohub,2013-11-25 04:22:00,
2013-11-24 23:27:00,22.6,12.7,29.88,WSW,258,7.0,16.0,65,-99.99,,,-99.99,0.0,meteohub,2013-11-25 04:27:00,
2013-11-24 23:32:00,22.5,12.2,29.88,West,260,9.0,16.0,64,-99.99,,,-99.99,0.0,meteohub,2013-11-25 04:32:00,
2013-11-24 23:37:00,22.6,12.4,29.88,West,261,10.0,16.0,64,-99.99,,,-99.99,0.0,meteohub,2013-11-25 04:37:00,
2013-11-24 23:42:00,22.3,11.3,29.89,West,275,10.0,15.0,62,-99.99,,,-99.99,0.0,meteohub,2013-11-25 04:42:00,
2013-11-24 23:47:00,22.6,13.6,29.88,WSW,244,9.0,16.0,68,-99.99,,,-99.99,0.0,meteohub,2013-11-25 04:47:00,
2013-11-24 23:52:00,22.5,12.6,29.89,WSW,238,8.0,18.0,65,-99.99,,,-99.99,0.0,meteohub,2013-11-25 04:52:00,
2013-11-24 23:58:00,22.5,12.2,29.89,West,261,11.0,18.0,64,-99.99,,,-99.99,0.0,meteohub,2013-11-25 04:58:00,